Location: LDNL
(36.4545°S, 141.6685°E)
Time: 13:35:12
(UTC+11:00)

Courier 1B Rocket - Pass Details

Date: 08 February 2023
Orbit: 920 x 1202 km, 28.2° (Epoch: 25 March)

Event Time Altitude Azimuth Distance (km) Brightness Sun altitude
Rises 06:46:54 0° 280° (W) 4,028 - -2.7°
Exits shadow 06:47:37 - 281° (W) 3,794 7.4 -2.6°
Reaches altitude 10° 06:49:49 10° 286° (WNW) 3,094 7.0 -2.1°
Maximum altitude 06:57:07 46° 355° (N) 1,575 6.0 -0.8°
Drops below altitude 10° 07:04:30 10° 65° (ENE) 3,132 8.4 0.6°
Sets 07:07:28 0° 71° (ENE) 4,082 9.2 1.2°
